OHDAC EFPO-EFHK

Flight info

Callsign OHDAC
Flight time N/A
Altitude 9000
Route UMSES DCT UXADA Y349 AMROT Y362 LAKUT
Aircraft DA42/L-SBDGRY/S

Departure

Time N/A
Airport Pori Airport (EFPO)

Arrival

Time 2026-04-24 19:49
Airport Helsinki Vantaa Airport (EFHK)
Time Latitude Longitude Altitude Speed Heading
2026-04-24 18:54 61.11254 22.14686 8750 ft 202 kts 166°
2026-04-24 18:55 61.08895 22.17921 8752 ft 206 kts 138°
2026-04-24 18:55 61.07831 22.19903 8744 ft 206 kts 138°
2026-04-24 18:55 61.06764 22.21875 8749 ft 206 kts 139°
2026-04-24 18:56 61.05691 22.23846 8750 ft 206 kts 139°
2026-04-24 18:56 61.04617 22.25806 8748 ft 206 kts 139°
2026-04-24 18:56 61.03545 22.27759 8747 ft 206 kts 139°
2026-04-24 18:56 61.02477 22.29703 8748 ft 206 kts 138°
2026-04-24 18:57 61.01409 22.31640 8750 ft 206 kts 138°
2026-04-24 18:57 61.00336 22.33597 8747 ft 206 kts 138°
2026-04-24 18:57 60.99266 22.35544 8745 ft 206 kts 138°
2026-04-24 18:57 60.98192 22.37493 8740 ft 206 kts 138°
2026-04-24 18:58 60.97107 22.39464 8739 ft 206 kts 139°
2026-04-24 18:58 60.96041 22.41395 8737 ft 206 kts 138°
2026-04-24 18:58 60.94965 22.43340 8735 ft 206 kts 138°
2026-04-24 18:58 60.93887 22.45296 8729 ft 206 kts 138°
2026-04-24 18:59 60.92810 22.47242 8730 ft 206 kts 138°
2026-04-24 18:59 60.91729 22.49193 8733 ft 206 kts 138°
2026-04-24 18:59 60.90642 22.51155 8732 ft 206 kts 138°
2026-04-24 18:59 60.89567 22.53089 8729 ft 206 kts 138°
2026-04-24 19:00 60.88495 22.55022 8732 ft 206 kts 138°
2026-04-24 19:00 60.87415 22.56968 8731 ft 206 kts 138°
2026-04-24 19:00 60.86331 22.58916 8734 ft 206 kts 138°
2026-04-24 19:00 60.85263 22.60844 8731 ft 206 kts 136°
2026-04-24 19:01 60.84400 22.63139 8728 ft 204 kts 121°
2026-04-24 19:01 60.83622 22.65561 8733 ft 203 kts 120°
2026-04-24 19:01 60.82852 22.68009 8730 ft 204 kts 120°
2026-04-24 19:01 60.82081 22.70455 8731 ft 204 kts 120°
2026-04-24 19:02 60.81302 22.72905 8726 ft 204 kts 120°
2026-04-24 19:02 60.80528 22.75339 8726 ft 204 kts 120°
2026-04-24 19:02 60.79755 22.77759 8728 ft 204 kts 120°
2026-04-24 19:02 60.78980 22.80187 8731 ft 204 kts 120°
2026-04-24 19:03 60.78206 22.82606 8730 ft 204 kts 120°
2026-04-24 19:03 60.77425 22.85047 8727 ft 204 kts 120°
2026-04-24 19:03 60.76649 22.87466 8727 ft 203 kts 120°
2026-04-24 19:03 60.75870 22.89888 8729 ft 204 kts 120°
2026-04-24 19:04 60.75104 22.92276 8729 ft 204 kts 120°
2026-04-24 19:04 60.74325 22.94695 8727 ft 204 kts 120°
2026-04-24 19:04 60.73546 22.97109 8727 ft 204 kts 120°
2026-04-24 19:04 60.72765 22.99534 8730 ft 204 kts 120°
2026-04-24 19:05 60.71981 23.01962 8727 ft 204 kts 120°
2026-04-24 19:05 60.71196 23.04389 8726 ft 204 kts 120°
2026-04-24 19:05 60.70419 23.06796 8726 ft 204 kts 120°
2026-04-24 19:05 60.69635 23.09214 8726 ft 204 kts 120°
2026-04-24 19:06 60.68853 23.11626 8727 ft 203 kts 120°
2026-04-24 19:06 60.68077 23.14020 8727 ft 203 kts 120°
2026-04-24 19:06 60.67298 23.16422 8724 ft 203 kts 120°
2026-04-24 19:06 60.66522 23.18810 8723 ft 204 kts 120°
2026-04-24 19:07 60.65741 23.21211 8722 ft 204 kts 120°
2026-04-24 19:07 60.64952 23.23629 8721 ft 204 kts 120°
2026-04-24 19:07 60.64170 23.26024 8721 ft 203 kts 120°
2026-04-24 19:07 60.63388 23.28422 8721 ft 203 kts 120°
2026-04-24 19:08 60.62605 23.30817 8720 ft 203 kts 120°
2026-04-24 19:08 60.61820 23.33214 8722 ft 203 kts 120°
2026-04-24 19:08 60.61035 23.35607 8724 ft 203 kts 120°
2026-04-24 19:08 60.60261 23.37976 8721 ft 203 kts 120°
2026-04-24 19:09 60.59472 23.40377 8720 ft 203 kts 120°
2026-04-24 19:09 60.58682 23.42783 8721 ft 203 kts 120°
2026-04-24 19:09 60.57901 23.45155 8722 ft 203 kts 120°
2026-04-24 19:09 60.57107 23.47566 8721 ft 203 kts 120°
2026-04-24 19:10 60.56327 23.49933 8724 ft 202 kts 120°
2026-04-24 19:10 60.55536 23.52332 8726 ft 203 kts 120°
2026-04-24 19:10 60.54757 23.54690 8727 ft 203 kts 120°
2026-04-24 19:10 60.53965 23.57085 8726 ft 203 kts 120°
2026-04-24 19:11 60.53179 23.59466 8723 ft 203 kts 120°
2026-04-24 19:11 60.52391 23.61846 8721 ft 203 kts 120°
2026-04-24 19:11 60.51606 23.64210 8719 ft 203 kts 120°
2026-04-24 19:11 60.50813 23.66601 8715 ft 203 kts 121°
2026-04-24 19:12 60.50024 23.68975 8717 ft 203 kts 121°
2026-04-24 19:12 60.49233 23.71355 8717 ft 203 kts 121°
2026-04-24 19:12 60.48438 23.73739 8718 ft 203 kts 121°
2026-04-24 19:12 60.47647 23.76111 8715 ft 203 kts 121°
2026-04-24 19:13 60.47123 23.77680 8714 ft 203 kts 121°
2026-04-24 19:13 60.46071 23.80824 8716 ft 203 kts 121°
2026-04-24 19:13 60.45274 23.83214 8711 ft 203 kts 121°
2026-04-24 19:13 60.44485 23.85573 8712 ft 202 kts 121°
2026-04-24 19:14 60.43916 23.88110 8701 ft 193 kts 88°
2026-04-24 19:14 60.43975 23.90748 8711 ft 188 kts 77°
2026-04-24 19:14 60.44120 23.93371 8711 ft 187 kts 75°
2026-04-24 19:14 60.44278 23.96009 8709 ft 187 kts 75°
2026-04-24 19:15 60.44434 23.98630 8712 ft 187 kts 75°
2026-04-24 19:15 60.44296 24.01281 8720 ft 195 kts 107°
2026-04-24 19:15 60.43732 24.03668 8704 ft 182 kts 115°
2026-04-24 19:15 60.43059 24.05904 8293 ft 195 kts 120°
2026-04-24 19:16 60.41509 24.10320 7360 ft 184 kts 124°
2026-04-24 19:16 60.40785 24.12309 7167 ft 166 kts 124°
2026-04-24 19:16 60.40120 24.14128 7010 ft 160 kts 124°
2026-04-24 19:17 60.39449 24.15970 6850 ft 164 kts 124°
2026-04-24 19:17 60.38761 24.17850 6674 ft 167 kts 124°
2026-04-24 19:17 60.38062 24.19753 6490 ft 169 kts 124°
2026-04-24 19:17 60.37362 24.21661 6301 ft 169 kts 124°
2026-04-24 19:18 60.36655 24.23583 6115 ft 169 kts 124°
2026-04-24 19:18 60.35960 24.25476 5929 ft 168 kts 124°
2026-04-24 19:18 60.35260 24.27380 5741 ft 168 kts 124°
2026-04-24 19:18 60.34560 24.29282 5555 ft 167 kts 124°
2026-04-24 19:19 60.33867 24.31161 5369 ft 167 kts 124°
2026-04-24 19:19 60.33178 24.33034 5184 ft 166 kts 124°
2026-04-24 19:19 60.32486 24.34912 5004 ft 165 kts 124°
2026-04-24 19:19 60.31814 24.36728 4909 ft 160 kts 124°
2026-04-24 19:20 60.31168 24.38478 4787 ft 157 kts 124°
2026-04-24 19:20 60.30501 24.40279 4649 ft 157 kts 124°
2026-04-24 19:20 60.29848 24.42047 4486 ft 158 kts 124°
2026-04-24 19:20 60.29195 24.43810 4336 ft 158 kts 124°
2026-04-24 19:21 60.28535 24.45590 4168 ft 158 kts 124°
2026-04-24 19:21 60.27882 24.47350 4000 ft 158 kts 124°
2026-04-24 19:21 60.27224 24.49120 3829 ft 158 kts 124°
2026-04-24 19:21 60.26562 24.50904 3657 ft 157 kts 124°
2026-04-24 19:22 60.25911 24.52655 3485 ft 157 kts 124°
2026-04-24 19:22 60.25253 24.54427 3308 ft 156 kts 124°
2026-04-24 19:22 60.24598 24.56183 3135 ft 156 kts 124°
2026-04-24 19:22 60.23950 24.57921 2968 ft 155 kts 124°
2026-04-24 19:23 60.23302 24.59658 2797 ft 155 kts 124°
2026-04-24 19:23 60.22665 24.61365 2629 ft 154 kts 124°
2026-04-24 19:23 60.22022 24.63088 2455 ft 153 kts 124°
2026-04-24 19:23 60.21374 24.64826 2292 ft 152 kts 123°
2026-04-24 19:24 60.21077 24.66707 2248 ft 136 kts 79°
2026-04-24 19:24 60.21419 24.68363 2239 ft 124 kts 53°
2026-04-24 19:24 60.21925 24.69751 2226 ft 119 kts 46°
2026-04-24 19:24 60.22454 24.71004 2199 ft 118 kts 45°
2026-04-24 19:25 60.23003 24.72253 2164 ft 117 kts 44°
2026-04-24 19:25 60.23544 24.73456 2128 ft 117 kts 43°
2026-04-24 19:25 60.24098 24.74673 2095 ft 116 kts 43°
2026-04-24 19:25 60.24647 24.75874 2059 ft 116 kts 43°
2026-04-24 19:26 60.25201 24.77078 1973 ft 120 kts 43°
2026-04-24 19:26 60.25771 24.78322 1842 ft 110 kts 44°
2026-04-24 19:26 60.26214 24.79312 1725 ft 86 kts 43°
2026-04-24 19:26 60.26599 24.80153 1593 ft 76 kts 41°
2026-04-24 19:27 60.26946 24.80903 1486 ft 71 kts 40°
2026-04-24 19:27 60.27287 24.81636 1399 ft 72 kts 40°
2026-04-24 19:27 60.27636 24.82394 1305 ft 74 kts 41°
2026-04-24 19:27 60.27991 24.83165 1205 ft 75 kts 42°
2026-04-24 19:28 60.28349 24.83949 1100 ft 76 kts 43°
2026-04-24 19:28 60.28709 24.84737 994 ft 77 kts 43°
2026-04-24 19:28 60.29077 24.85545 887 ft 77 kts 43°
2026-04-24 19:28 60.29441 24.86350 741 ft 78 kts 46°
2026-04-24 19:29 60.30194 24.88045 571 ft 84 kts 43°
2026-04-24 19:29 60.30594 24.88897 425 ft 82 kts 43°
2026-04-24 19:29 60.30975 24.89716 312 ft 80 kts 42°
2026-04-24 19:30 60.31359 24.90534 206 ft 79 kts 44°
2026-04-24 19:30 60.31715 24.91320 219 ft 79 kts 46°
2026-04-24 19:30 60.32135 24.92251 380 ft 95 kts 45°
2026-04-24 19:30 60.32597 24.93275 599 ft 108 kts 44°
2026-04-24 19:31 60.33270 24.94060 792 ft 120 kts
2026-04-24 19:31 60.34130 24.94138 951 ft 122 kts 359°
2026-04-24 19:31 60.34958 24.94156 1152 ft 117 kts
2026-04-24 19:31 60.35796 24.94221 1425 ft 122 kts
2026-04-24 19:32 60.36651 24.94261 1709 ft 123 kts
2026-04-24 19:32 60.37510 24.94303 2017 ft 123 kts
2026-04-24 19:32 60.38364 24.94209 2217 ft 129 kts 340°
2026-04-24 19:32 60.38989 24.92952 2251 ft 133 kts 295°
2026-04-24 19:33 60.38965 24.91030 2257 ft 143 kts 251°
2026-04-24 19:33 60.38460 24.89274 2261 ft 146 kts 242°
2026-04-24 19:33 60.37903 24.87529 2254 ft 147 kts 241°
2026-04-24 19:33 60.37336 24.85788 2264 ft 146 kts 241°
2026-04-24 19:34 60.36773 24.84066 2267 ft 146 kts 241°
2026-04-24 19:34 60.36210 24.82346 2265 ft 147 kts 241°
2026-04-24 19:34 60.35646 24.80608 2266 ft 147 kts 241°
2026-04-24 19:34 60.35088 24.78897 2267 ft 147 kts 241°
2026-04-24 19:35 60.34504 24.77148 2125 ft 152 kts 240°
2026-04-24 19:35 60.33854 24.75543 2012 ft 144 kts 212°
2026-04-24 19:35 60.32847 24.75458 1707 ft 155 kts 166°
2026-04-24 19:35 60.31885 24.76416 1412 ft 157 kts 143°
2026-04-24 19:36 60.31117 24.77873 1215 ft 150 kts 128°
2026-04-24 19:36 60.30487 24.79518 930 ft 145 kts 126°
2026-04-24 19:36 60.29877 24.81074 783 ft 133 kts 128°
2026-04-24 19:36 60.29333 24.82414 760 ft 115 kts 124°
2026-04-24 19:37 60.29036 24.83719 702 ft 90 kts 90°
2026-04-24 19:37 60.29082 24.84916 640 ft 82 kts 72°
2026-04-24 19:37 60.29298 24.85966 591 ft 84 kts 55°
2026-04-24 19:37 60.29673 24.86890 551 ft 85 kts 44°
2026-04-24 19:38 60.30086 24.87767 531 ft 87 kts 42°
2026-04-24 19:38 60.30511 24.88685 464 ft 91 kts 45°
2026-04-24 19:38 60.30936 24.89638 354 ft 89 kts 44°
2026-04-24 19:38 60.31348 24.90513 217 ft 83 kts 44°
2026-04-24 19:39 60.31733 24.91359 225 ft 86 kts 47°
2026-04-24 19:39 60.32166 24.92338 403 ft 98 kts 46°
2026-04-24 19:39 60.32639 24.93453 600 ft 106 kts 47°
2026-04-24 19:39 60.33185 24.94397 761 ft 106 kts 20°
2026-04-24 19:40 60.33886 24.94400 851 ft 100 kts 339°
2026-04-24 19:40 60.34472 24.93716 959 ft 98 kts 324°
2026-04-24 19:40 60.34851 24.92596 1018 ft 102 kts 277°
2026-04-24 19:40 60.34495 24.91226 920 ft 117 kts 229°
2026-04-24 19:41 60.33917 24.90097 933 ft 116 kts 226°
2026-04-24 19:41 60.33317 24.89000 924 ft 116 kts 225°
2026-04-24 19:41 60.32704 24.87942 893 ft 119 kts 223°
2026-04-24 19:41 60.32064 24.86872 869 ft 117 kts 224°
2026-04-24 19:42 60.31430 24.85923 798 ft 110 kts 217°
2026-04-24 19:42 60.30814 24.85161 788 ft 96 kts 207°
2026-04-24 19:42 60.30181 24.85422 726 ft 106 kts 134°
2026-04-24 19:42 60.29857 24.86591 655 ft 85 kts 91°
2026-04-24 19:43 60.30040 24.87606 572 ft 79 kts 52°
2026-04-24 19:43 60.30423 24.88498 475 ft 85 kts 44°
2026-04-24 19:43 60.30828 24.89399 375 ft 84 kts 44°
2026-04-24 19:43 60.31232 24.90258 237 ft 84 kts 44°
2026-04-24 19:44 60.31611 24.91079 184 ft 79 kts 46°
2026-04-24 19:44 60.31994 24.91981 374 ft 88 kts 45°
2026-04-24 19:44 60.32410 24.92944 652 ft 94 kts 47°
2026-04-24 19:44 60.32832 24.94025 869 ft 104 kts 49°
2026-04-24 19:45 60.33378 24.95025 993 ft 105 kts
2026-04-24 19:45 60.33980 24.94282 915 ft 120 kts 307°
2026-04-24 19:45 60.34481 24.92835 854 ft 123 kts 306°
2026-04-24 19:45 60.34607 24.91260 822 ft 119 kts 245°
2026-04-24 19:46 60.34023 24.90009 770 ft 116 kts 226°
2026-04-24 19:46 60.33413 24.88871 795 ft 116 kts 226°
2026-04-24 19:46 60.32838 24.87726 707 ft 118 kts 230°
2026-04-24 19:46 60.32317 24.86595 768 ft 102 kts 232°
2026-04-24 19:47 60.31853 24.85518 718 ft 94 kts 235°
2026-04-24 19:47 60.31435 24.84480 681 ft 102 kts 221°
2026-04-24 19:47 60.30731 24.84467 762 ft 107 kts 150°
2026-04-24 19:47 60.30179 24.85384 719 ft 92 kts 137°
2026-04-24 19:48 60.29852 24.86359 658 ft 85 kts 98°
2026-04-24 19:48 60.30003 24.87529 588 ft 90 kts 53°
2026-04-24 19:48 60.30811 24.89370 358 ft 81 kts 40°
2026-04-24 19:49 60.31597 24.91046 184 ft 77 kts 46°
2026-04-24 19:49 60.32221 24.92571 183 ft 37 kts 73°
2026-04-24 19:50 60.32309 24.93414 184 ft 24 kts 46°
2026-04-24 19:50 60.32427 24.93681 183 ft 26 kts 44°
2026-04-24 19:51 60.32687 24.94247 183 ft 28 kts 50°
2026-04-24 19:51 60.32825 24.94549 183 ft 29 kts 51°
2026-04-24 19:52 60.33093 24.95145 184 ft 28 kts 45°
2026-04-24 19:52 60.33208 24.95457 184 ft 27 kts 98°
2026-04-24 19:52 60.33080 24.95748 184 ft 29 kts 140°
2026-04-24 19:52 60.32900 24.95964 184 ft 31 kts 150°
2026-04-24 19:53 60.32710 24.96188 184 ft 31 kts 150°
2026-04-24 19:53 60.32515 24.96413 184 ft 32 kts 151°
2026-04-24 19:53 60.32135 24.96858 184 ft 31 kts 151°
2026-04-24 19:54 60.31939 24.97072 184 ft 31 kts 152°
2026-04-24 19:54 60.31744 24.97275 184 ft 31 kts 153°
2026-04-24 19:54 60.31543 24.97478 184 ft 32 kts 152°
2026-04-24 19:54 60.31354 24.97671 184 ft 29 kts 168°
2026-04-24 19:55 60.31225 24.97677 184 ft 27 kts 152°
2026-04-24 19:55 60.31014 24.97839 184 ft 3 kts 152°
2026-04-24 19:55 60.30975 24.97872 184 ft 12 kts 191°
2026-04-24 19:55 60.30940 24.97793 184 ft 1 kts 243°
2026-04-24 19:56 60.30937 24.97784 184 ft 0 kts 243°